Weather in Santa Cruz

Philippines     14°16′44″N   121°24′57″E
temp.,
°C
wind,
m/s
gust,
m/s
humid.,
%
clouds,
%
prec.,
mm/h
press.,
hPa
HPBL,
m
26 february, fri
fri2623:00+21e25980 0.0 1009164
02:00+21e12987 0.0 100851
05:00+21ene129857 0.0 100833
08:00+24ene248775 0.0 1010430
11:00+29ene236358 0.0 10091088
14:00+29ene336078 0.1 10081092
17:00+26e357437 0.0 1007517
20:00+22e249718 0.0 1009163
27 february, sat
sat2723:00+22e24984 0.0 1010119
02:00+22ene12983 0.0 100956
05:00+21ene129824 0.0 100847
08:00+25ene268337 0.1 1011582
11:00+28ene46678 0.1 10111030
14:00+29ene466527 0.4 10091087
17:00+26ene477870 0.0 1008839
20:00+23e3109383 0.1 1011628
28 february, sun
sun2823:00+23ene310941 0.1 1012651
02:00+22ene2109519 0.4 1011590
05:00+22ene210969 0.2 1010596
08:00+24ene4108640 0.6 1013818
11:00+26ene5107750 1.1 10131000
14:00+27ene597542 2.7 10111034
17:00+25ene498424 0.7 1010825
20:00+23ene3109338 0.8 1012645
1 march, mon
mon123:00+23ene3109425 0.1 1013612
02:00+23ene299653 0.3 1012549
05:00+23e2895100 0.3 1011556
08:00+25ene498698 0.7 1014888
11:00+28ene586618 0.2 10141229
14:00+29ene57649 0.3 10111186
17:00+26ene488115 0.3 1011782
20:00+23ene289527 0.3 1013468
2 march, tue
tue223:00+23ene289637 0.1 1014436
02:00+22e279734 0.4 1012361
05:00+22e269819 0.4 1012280
08:00+25e368616 0.6 1014645
11:00+29ene356068 0.1 10141170
14:00+29ene466339 0.1 10121138
17:00+26ene487918 0.1 1012808
20:00+23ene3109219 0.2 1013589